Location: ??????
(55.4348°N, 39.2112°E)
Time: 10:07:14
(UTC+00:00)

Cosmos 1666 Rocket - Pass Details

Date: 14 April 2024
Orbit: 600 x 630 km, 82.5° (Epoch: 19 May)

Event Time Altitude Azimuth Distance (km) Brightness Sun altitude
Rises 01:28:09 0° 344° (NNW) 2,938 7.2 -7.7°
Reaches altitude 10° 01:30:29 10° 337° (NNW) 2,024 6.3 -7.4°
Maximum altitude 01:34:43 43° 267° (W) 894 4.0 -6.8°
Drops below altitude 10° 01:38:55 10° 196° (SSW) 2,000 5.8 -6.3°
Sets 01:41:12 0° 190° (S) 2,898 6.6 -6.0°
